Voltar ao catálogo

STARLINK-36082

AtivoComunicaçõesVLEO
NORAD 66872·PAYLOAD·🇺🇸 United States

Lançado Dec 2, 2025 de Cape Canaveral Space Force Station

Loading…

Próximas Passagens (próximas 24 horas)

TLE

AtualizadoSource: CelesTrak SupGP

Época: Sep 14, 2026, 20:53 UTC

1 66872C 25281AA  26257.87062500  .00011575  00000+0  41926-3 0  2577
2 66872  43.0033 355.1432 0001462 271.7519 228.5401 15.27571964    12

Acompanhe STARLINK-36082 em tempo real com AllMySat

Download on the App Store